[[{"header":{"parameterUnit":"m.s-1","parameterCategory":1,"la1":30.2991,"la2":30.254,"lo1":-89.0895,"lo2":-89.0444,"dy":0.0017,"dx":0.0017,"nx":28,"ny":28,"refTime":"2025-01-08T09:00:00:Z","depth":0,"parameterNumber":2,"parameterNumberName":"U-component_of_WINDS"},"data":[0,0,0,0,0,0,0,0,0,0,0,0,0,0,0,0,0,0,0,0,0,0,0,0,0,0,0,0,0,0,0,0,0,0,0,0,0,0,0,0,0,0,0,0,0,0,0,0,0,0,0,0,0,0,0,0,0,0,-1.3167,-1.3168,0,-1.3221,-1.3222,-1.3223,-1.3131,-1.3128,-1.3125,-1.3122,-1.3181,-1.3185,-1.3189,0,0,0,0,0,0,0,0,0,0,0,0,0,-1.2987,-1.2991,-1.3167,-1.3168,-1.3169,-1.3221,-1.3222,-1.3223,-1.3132,-1.3128,-1.3124,-1.3121,-1.3179,-1.3184,-1.319,0,0,0,0,0,0,0,0,0,0,0,0,0,-1.3056,-1.2992,-1.3167,-1.313,-1.3127,-1.3221,-1.3222,-1.3223,-1.3133,-1.3128,-1.3123,-1.3119,-1.3177,-1.3184,-1.319,-1.3325,0,0,-1.3211,-1.3214,0,0,0,0,0,0,0,0,-1.3052,-1.3062,-1.3135,-1.3132,-1.3129,-1.3165,-1.318,-1.3257,-1.3134,-1.3131,-1.3122,-1.3117,-1.3179,-1.3185,-1.3206,-1.3327,-1.333,-1.3211,-1.3215,-1.3218,-1.322,0,0,0,0,0,0,0,-1.3047,-1.306,-1.3189,-1.3136,-1.3133,-1.311,-1.3115,-1.3194,-1.3181,-1.3131,-1.3124,-1.3132,-1.3177,-1.32,-1.3207,-1.3331,-1.3211,-1.3217,-1.3221,-1.3224,-1.3564,-1.3569,0,0,0,0,0,0,-1.3047,-1.3056,-1.3187,-1.319,-1.3078,-1.3118,-1.3123,-1.3158,-1.3179,-1.3178,-1.3135,-1.3127,-1.3191,-1.3199,-1.3208,-1.3367,-1.3218,-1.3224,-1.3228,-1.3559,-1.3565,-1.357,0,0,0,0,0,0,-1.3043,-1.3059,-1.3185,-1.3122,-1.3136,-1.3126,-1.3166,-1.3162,-1.3184,-1.3183,-1.318,-1.3161,-1.3187,-1.3199,-1.3296,-1.3368,-1.3227,-1.3233,-1.3553,-1.3561,-1.3568,-1.3685,0,0,0,0,0,0,-1.3039,-1.3059,-1.311,-1.3123,-1.3139,-1.3272,-1.3171,-1.3166,-1.3196,-1.3185,-1.3206,-1.3205,-1.3184,-1.3286,-1.3303,-1.3374,-1.3239,-1.3546,-1.3556,-1.3565,-1.3675,-1.3696,-1.3714,0,0,0,0,0,-1.3032,-1.3141,-1.3113,-1.3129,-1.3203,-1.3276,-1.3285,-1.3258,-1.3202,-1.3253,-1.3252,-1.3205,-1.3356,-1.3297,-1.3315,-1.3389,-1.3542,-1.3554,-1.3564,-1.3666,-1.3692,-1.3713,0,0,0,0,0,0,-1.3138,-1.3143,-1.3111,-1.3227,-1.3252,-1.3261,-1.3325,-1.3286,-1.3328,-1.3317,-1.3282,-1.3288,-1.3392,-1.34,-1.3334,-1.352,-1.344,-1.3455,-1.3511,-1.3535,-1.3555,-1.3551,-1.3244,0,0,0,0,0,-1.3175,-1.3233,-1.3234,-1.3337,-1.3351,-1.3336,-1.3367,-1.3343,-1.3368,-1.3378,-1.3384,-1.341,-1.3463,-1.3499,-1.3548,-1.3675,-1.3678,-1.3734,-1.3754,-1.377,-1.3784,-1.3851,-1.3876,-1.3608,-1.3607,-1.3607,0,0,-1.3252,-1.3261,-1.3301,-1.3358,-1.3375,-1.3436,-1.3345,-1.3415,-1.346,-1.3389,-1.3481,-1.3486,-1.3512,-1.3624,-1.3674,-1.3634,-1.3858,-1.3784,-1.3797,-1.3803,-1.3865,-1.3891,-1.3913,-1.3615,-1.3614,-1.3613,0,0,-1.3424,-1.3437,-1.3523,-1.3541,-1.3566,-1.3555,-1.3575,-1.359,-1.359,-1.3681,-1.3628,-1.3682,-1.3774,-1.3795,-1.3818,-1.3995,-1.3954,-1.4012,-1.4114,-1.418,-1.4201,-1.422,-1.4284,-1.4307,-1.4026,-1.4026,-1.4026,0,-1.3517,-1.3607,-1.3573,-1.3646,-1.3673,-1.3609,-1.3697,-1.3715,-1.3756,-1.3776,-1.373,-1.3844,-1.3857,-1.3973,-1.4016,-1.4036,-1.4059,-1.4011,-1.4201,-1.4219,-1.4236,-1.4296,-1.432,-1.4033,-1.4032,-1.4032,-1.4031,0,-1.3721,-1.3784,-1.3851,-1.389,-1.3924,-1.4005,-1.3983,-1.4021,-1.3994,-1.3988,-1.4081,-1.4094,-1.4144,-1.4169,-1.4144,-1.4282,-1.4256,-1.4206,-1.4126,-1.4269,-1.4325,-1.4348,-1.4043,-1.4041,-1.4039,-1.4037,0,0,-1.3964,-1.3981,-1.4007,-1.4023,-1.4045,-1.4093,-1.417,-1.4217,-1.4251,-1.428,-1.4344,-1.4423,-1.4376,-1.4402,-1.4378,-1.4435,-1.4575,-1.4378,-1.4378,-1.4415,-1.4727,-1.4766,-1.4794,-1.4546,-1.455,-1.4554,-1.4725,0,-1.4136,-1.4268,-1.4238,-1.4368,-1.4426,-1.4364,-1.4431,-1.4451,-1.4447,-1.4495,-1.449,-1.4547,-1.448,-1.4495,-1.4549,-1.4547,-1.4637,-1.4533,-1.4606,-1.4609,-1.4603,-1.4823,-1.4865,-1.5026,-1.4747,-1.4751,-1.4753,0,-1.4355,-1.4391,-1.4527,-1.4537,-1.456,-1.4621,-1.4661,-1.4708,-1.473,-1.4722,-1.475,-1.4714,-1.479,-1.4706,-1.481,-1.474,-1.4768,-1.4771,-1.4776,-1.4784,-1.4692,-1.4838,-1.5077,-1.5102,-1.4788,-1.4785,-1.4782,0,-1.452,-1.4602,-1.4694,-1.471,-1.4724,-1.4768,-1.4776,-1.4793,-1.4823,-1.4858,-1.4877,-1.4921,-1.4946,-1.4981,-1.4958,-1.4899,-1.5066,-1.4981,-1.5063,-1.5064,-1.5103,-1.5101,-1.5352,-1.5118,-1.5117,-1.5117,-1.5116,0,-1.4717,-1.4802,-1.4768,-1.4825,-1.4919,-1.4883,-1.4977,-1.4978,-1.4992,-1.5048,-1.4997,-1.505,-1.5015,-1.5066,-1.5048,-1.5137,-1.5148,-1.5145,-1.5139,-1.5151,-1.5151,-1.517,-1.5159,-1.5123,-1.5122,-1.5121,-1.5119,0,-1.4919,-1.4899,-1.4995,-1.5,-1.5003,-1.5072,-1.5076,-1.5128,-1.5118,-1.5189,-1.5204,-1.5189,-1.5246,-1.5225,-1.5286,-1.5274,-1.5387,-1.5367,-1.5381,-1.5376,-1.5459,-1.5452,-1.5732,-1.5767,-1.5509,-1.5512,-1.5514,0,-1.5046,-1.511,-1.5121,-1.5154,-1.5166,-1.522,-1.525,-1.5216,-1.525,-1.5277,-1.5327,-1.5378,-1.5418,-1.5511,-1.5506,-1.5552,-1.5533,-1.5627,-1.554,-1.5548,-1.5535,-1.5533,-1.5539,-1.5646,-1.5649,-1.5651,-1.5653,0,-1.5275,-1.5262,-1.5306,-1.5347,-1.5384,-1.5415,-1.5441,-1.5471,-1.5439,-1.5479,-1.5535,-1.5566,-1.5627,-1.5679,-1.5719,-1.5728,-1.5686,-1.568,-1.5702,-1.5715,-1.5721,-1.572,-1.543,-1.5675,-1.5673,-1.5671,-1.567,-1.5669,-1.5445,-1.5498,-1.5514,-1.5565,-1.5581,-1.5606,-1.5656,-1.5651,-1.5697,-1.5744,-1.572,-1.5786,-1.5804,-1.5854,-1.5868,-1.5918,-1.5882,-1.5913,-1.5921,-1.593,-1.5941,-1.5711,-1.5926,-1.5925,-1.5924,-1.5924,-1.5923,0,-1.5672,-1.5678,-1.5725,-1.5763,-1.5803,-1.5757,-1.5784,-1.5821,-1.5879,-1.5898,-1.5938,-1.6002,-1.6052,-1.6049,-1.6095,-1.6136,-1.6118,-1.6149,-1.6147,-1.6149,-1.5971,-1.5948,-1.6163,-1.6163,-1.6163,-1.6163,-1.6163,-1.6163,-1.5795,-1.5883,-1.5871,-1.5967,-1.5972,-1.6036,-1.6055,-1.6077,-1.6093,-1.6167,-1.6207,-1.6204,-1.6215,-1.6261,-1.6304,-1.6302,-1.6322,-1.6361,-1.6352,-1.6186,-1.6162,-1.614,-1.6118,-1.6365,-1.6365,-1.6526,-1.6528,-1.6529]},{"header":{"parameterUnit":"m.s-1","parameterCategory":1,"la1":30.2991,"la2":30.254,"lo1":-89.0895,"lo2":-89.0444,"dy":0.0017,"dx":0.0017,"nx":28,"ny":28,"refTime":"2025-01-08T09:00:00:Z","depth":0,"parameterNumber":3,"parameterNumberName":"V-component_of_WINDS"},"data":[0,0,0,0,0,0,0,0,0,0,0,0,0,0,0,0,0,0,0,0,0,0,0,0,0,0,0,0,0,0,0,0,0,0,0,0,0,0,0,0,0,0,0,0,0,0,0,0,0,0,0,0,0,0,0,0,0,0,-6.7362,-6.7363,0,-6.7479,-6.748,-6.7481,-6.7367,-6.7363,-6.7358,-6.7354,-6.7469,-6.7476,-6.7483,0,0,0,0,0,0,0,0,0,0,0,0,0,-6.7034,-6.7041,-6.7362,-6.7363,-6.7365,-6.7478,-6.748,-6.7482,-6.7368,-6.7362,-6.7357,-6.7352,-6.7466,-6.7475,-6.7484,0,0,0,0,0,0,0,0,0,0,0,0,0,-6.7166,-6.7043,-6.7361,-6.7322,-6.7319,-6.7478,-6.748,-6.7482,-6.7369,-6.7362,-6.7355,-6.7349,-6.7464,-6.7474,-6.7485,-6.7687,0,0,-6.7518,-6.7523,0,0,0,0,0,0,0,0,-6.7159,-6.7179,-6.7326,-6.7325,-6.7322,-6.7401,-6.7407,-6.7551,-6.7371,-6.735,-6.7354,-6.7346,-6.7451,-6.7463,-6.7499,-6.7692,-6.7697,-6.7519,-6.7526,-6.753,-6.7533,0,0,0,0,0,0,0,-6.715,-6.7173,-6.7408,-6.7328,-6.7326,-6.7296,-6.7307,-6.7433,-6.7437,-6.7351,-6.7343,-6.7359,-6.7449,-6.7489,-6.7501,-6.7699,-6.7519,-6.7528,-6.7535,-6.7539,-6.8062,-6.8069,0,0,0,0,0,0,-6.7146,-6.7166,-6.7404,-6.7411,-6.7223,-6.7308,-6.732,-6.7383,-6.7435,-6.7437,-6.7365,-6.7353,-6.7474,-6.7489,-6.7505,-6.7744,-6.753,-6.754,-6.7547,-6.8054,-6.8063,-6.8071,0,0,0,0,0,0,-6.7139,-6.7168,-6.7399,-6.7287,-6.7314,-6.732,-6.7392,-6.7389,-6.7429,-6.7446,-6.7445,-6.7405,-6.7469,-6.749,-6.7643,-6.7746,-6.7545,-6.7555,-6.8046,-6.8057,-6.8067,-6.8225,0,0,0,0,0,0,-6.7131,-6.7167,-6.7245,-6.7289,-6.732,-6.7537,-6.7398,-6.7396,-6.7448,-6.7435,-6.7484,-6.7485,-6.7466,-6.7627,-6.7653,-6.7758,-6.7564,-6.8036,-6.8051,-6.8064,-6.821,-6.824,-6.8265,0,0,0,0,0,-6.7119,-6.7284,-6.725,-6.7279,-6.7419,-6.7543,-6.7561,-6.7536,-6.7457,-6.7535,-6.7546,-6.7484,-6.7731,-6.7644,-6.7672,-6.7782,-6.803,-6.8047,-6.8063,-6.8198,-6.8234,-6.8264,0,0,0,0,0,0,-6.725,-6.7289,-6.7251,-6.7436,-6.7488,-6.7524,-6.7621,-6.7575,-6.7649,-6.7633,-6.7598,-6.761,-6.7772,-6.7792,-6.7694,-6.7979,-6.7867,-6.789,-6.796,-6.7995,-6.8021,-6.8013,-6.7573,0,0,0,0,0,-6.7301,-6.7401,-6.7429,-6.7589,-6.7617,-6.7615,-6.7668,-6.7645,-6.7696,-6.7717,-6.7739,-6.779,-6.7878,-6.7937,-6.802,-6.8213,-6.8221,-6.8302,-6.8329,-6.8352,-6.8372,-6.8473,-6.8509,-6.8125,-6.8125,-6.8125,0,0,-6.7406,-6.744,-6.7505,-6.7616,-6.7653,-6.7755,-6.7634,-6.7748,-6.7823,-6.7734,-6.788,-6.7898,-6.7951,-6.8125,-6.8202,-6.8146,-6.8479,-6.8373,-6.839,-6.8398,-6.8494,-6.853,-6.8562,-6.8137,-6.8135,-6.8133,0,0,-6.765,-6.7687,-6.7823,-6.7863,-6.7921,-6.7919,-6.7952,-6.7996,-6.8004,-6.8151,-6.8086,-6.8173,-6.8328,-6.8368,-6.8409,-6.8668,-6.8613,-6.8696,-6.8838,-6.8938,-6.8968,-6.8995,-6.9085,-6.9119,-6.8716,-6.8716,-6.8717,0,-6.7773,-6.7926,-6.7899,-6.8017,-6.8067,-6.7993,-6.8129,-6.8169,-6.8251,-6.8286,-6.8223,-6.8415,-6.8446,-6.8627,-6.869,-6.8726,-6.8761,-6.869,-6.8966,-6.8993,-6.9017,-6.9103,-6.9138,-6.8726,-6.8725,-6.8724,-6.8723,0,-6.8074,-6.8181,-6.8284,-6.8367,-6.8428,-6.8555,-6.8545,-6.861,-6.8581,-6.8585,-6.8734,-6.8768,-6.8856,-6.8898,-6.887,-6.9075,-6.9038,-6.8972,-6.8858,-6.9064,-6.9144,-6.9177,-6.874,-6.8736,-6.8733,-6.8731,0,0,-6.8404,-6.8469,-6.8507,-6.8543,-6.8602,-6.8683,-6.8806,-6.8893,-6.8949,-6.9008,-6.9108,-6.9241,-6.9179,-6.9226,-6.9202,-6.9289,-6.949,-6.9211,-6.9212,-6.9261,-6.9716,-6.9765,-6.9804,-6.9454,-6.9461,-6.9466,-6.9711,0,-6.8648,-6.8864,-6.8842,-6.9045,-6.9143,-6.9073,-6.918,-6.9226,-6.9233,-6.9315,-6.9321,-6.9415,-6.9328,-6.9355,-6.9439,-6.9448,-6.9581,-6.943,-6.9546,-6.955,-6.9534,-6.9846,-6.9898,-7.0128,-6.9742,-6.9747,-6.9751,0,-6.8963,-6.9034,-6.9248,-6.9291,-6.933,-6.9427,-6.9505,-6.9585,-6.9635,-6.9634,-6.9686,-6.9647,-6.9768,-6.9653,-6.9818,-6.9716,-6.9762,-6.9774,-6.9782,-6.9791,-6.9663,-6.9862,-7.0201,-7.0235,-6.9801,-6.9797,-6.9793,0,-6.918,-6.9329,-6.9476,-6.9509,-6.9563,-6.9632,-6.9658,-6.9701,-6.9755,-6.9822,-6.9856,-6.9936,-6.998,-7.0042,-7.0025,-6.9943,-7.0193,-7.0077,-7.0194,-7.0194,-7.0249,-7.0246,-7.0599,-7.0281,-7.028,-7.028,-7.0279,0,-6.9455,-6.9588,-6.9575,-6.9665,-6.9812,-6.9784,-6.993,-6.9946,-6.9985,-7.0076,-7.002,-7.0106,-7.0078,-7.0162,-7.0149,-7.0287,-7.0308,-7.0308,-7.0303,-7.0313,-7.0313,-7.0342,-7.0325,-7.0289,-7.0287,-7.0285,-7.0283,0,-6.9723,-6.9719,-6.9875,-6.9913,-6.9926,-7.0032,-7.0063,-7.0147,-7.0149,-7.0265,-7.029,-7.0293,-7.0389,-7.0378,-7.0485,-7.0476,-7.0647,-7.0623,-7.0631,-7.0625,-7.0742,-7.073,-7.1125,-7.1175,-7.0826,-7.0829,-7.0832,0,-6.9898,-6.9999,-7.0049,-7.0106,-7.0137,-7.023,-7.0284,-7.0261,-7.0319,-7.0384,-7.046,-7.0551,-7.0622,-7.0778,-7.0789,-7.087,-7.0846,-7.0979,-7.0858,-7.0865,-7.0847,-7.0841,-7.085,-7.1003,-7.1007,-7.101,-7.1013,0,-7.0209,-7.0202,-7.0284,-7.0366,-7.0433,-7.0495,-7.0551,-7.0601,-7.0583,-7.0651,-7.0749,-7.0805,-7.0914,-7.1005,-7.1081,-7.1104,-7.1056,-7.1051,-7.1082,-7.1092,-7.1092,-7.1093,-7.0695,-7.1042,-7.1039,-7.1037,-7.1035,-7.1034,-7.0435,-7.0521,-7.0569,-7.0662,-7.0702,-7.0756,-7.0837,-7.0849,-7.0931,-7.1019,-7.1,-7.111,-7.1156,-7.1253,-7.1285,-7.1369,-7.1321,-7.1366,-7.1377,-7.1389,-7.1402,-7.108,-7.1383,-7.1382,-7.1381,-7.1381,-7.138,0,-7.0742,-7.077,-7.0855,-7.0936,-7.1009,-7.0958,-7.1017,-7.1081,-7.1179,-7.1227,-7.1299,-7.141,-7.1498,-7.1515,-7.1598,-7.1662,-7.1641,-7.1684,-7.1679,-7.1684,-7.1441,-7.1406,-7.1699,-7.1699,-7.1699,-7.1699,-7.1699,-7.1699,-7.091,-7.1053,-7.1052,-7.1213,-7.1239,-7.1348,-7.1386,-7.1435,-7.1472,-7.16,-7.1673,-7.1684,-7.1719,-7.1804,-7.1881,-7.1884,-7.1916,-7.1968,-7.1962,-7.1734,-7.1702,-7.1671,-7.1638,-7.1975,-7.1976,-7.2197,-7.22,-7.2201]}]]